STARLINK-33764, 63510

Orbit data source: Space-Track

STARLINK-33764, 63510 is a payload satellite owned by SpaceX/Seattle (US) in LEO that was launched on Mon, 07 Apr 2025 UTC via an FALCON 9 launch vehicle from the Air Force Western Test Range (AFWTR). Payload-class satellites include a variety of spacecraft equipped with specific instruments for various scientific and technological missions. These include communications satellites like Starlink; space stations such as the ISS; scientific satellites like the Hubble; Earth observation satellites from companies like Planet Labs, Umbra, and HawkEye 360; GPS; miniature CubeSats for education and research; and military/defense satellites.

Loading next visibility...
Identifier
63510, 2025-071T
Orbit
LEO
Country
Flag of USUS
Related business
Manufacturer
SpaceX/Seattle
Mission
Operational Commercial Communications
Bus & Motor
STARLINK V2MO, Unknown motor
Mass
575 kg wet, ~530 kg dry
Launch date (UTC)
2025-04-07 (8 months ago)
Launch vehicle
FALCON 9
Launch site
Air Force Western Test Range (AFWTR)
Object type
Payload
Rocket body
Debris
Shape & HBR
Box + 2 Pan, 17.7 m
Radar Cross Section
36.964 m², Large (>1 m²)

Expand to show TLE details & history
Last TLE update: 19 hours ago

TLE from 19 hours ago
0 STARLINK-33764
1 63510U 25071T   25353.73777285  .00018869  00000-0  64757-3 0  9998
2 63510  53.1573 151.6296 0000841  89.4663 270.6434 15.30199754 40509
Epoch: 2025-12-19T17:42Z
TLE epoch observation values (Epoch: 2025-12-19T17:42:23.574Z)
Latitude
-0.00002°
Longitude
157.45674°
Altitude
476.109 km
Speed
7.629 km/s
True Right ascension
10h 06m 31s
True Declination
0° 00' 00"
Sunlit
Object was in full shadow at epoch
Visualization orbit readout
Latitude
Unknown
Longitude
Unknown
Altitude
Unknown
Speed
Unknown
Apparent Right ascension
Unknown
Apparent Declination
Unknown
Sunlit
N/A
Visualization observer readout
Local Sidereal Time
11:24:37
Azimuth
Unknown
Elevation
Unknown
Doppler factor
Unknown
Orbital elements
Apogee altitude
476.049 km
Perigee altitude
474.896 km
Semi-major axis
6,853.61 km
Eccentricity
0.00008
Inclination
53.1573°
RAAN
151.6296°
Arg. of periapsis
89.4663°
True anomaly
270.63376°
Mean anomaly
270.6434°
Eccentric anomaly
270.63858°
Mean motion
3.82529 °/min
Orbital period
94.11 mins
BSTAR
0.00064757
Loading maneuver chart data...
Computing Atmospheric mass density...
Loading historical data...
Loading historical data...
Loading historical data...
Loading historical data...
Loading historical data...
Loading historical data...
Loading historical data...

Documentation

Showing up to 5 results
|